Vernon, TX

6:35 AM CST on December 04, 2016 (GMT -0600)
Vernon

Weather History for KF05 - May, 2013

Change the Weather History Date:

Monday, May 20, 2013

  Actual Average (KLTS) Record (KLTS)
Temperature  
Mean Temperature 83 °F -  
Max Temperature 100 °F 83 °F 102 °F (2006)
Min Temperature 66 °F 60 °F 48 °F (2000)
Cooling Degree Days 18    
Growing Degree Days 33 (Base 50)    
Moisture  
Dew Point 46 °F    
Average Humidity 33    
Maximum Humidity 73    
Minimum Humidity 8    
Precipitation  
Precipitation 0.00 in - - ()
Sea Level Pressure  
Sea Level Pressure 29.68 in    
Wind  
Wind Speed 9 mph (WSW)    
Max Wind Speed 23 mph    
Max Gust Speed 29 mph    
Visibility 10 miles    
Events      
Averages and records for this station are not official NWS values.
T = Trace of Precipitation, MM = Missing Value Source: NWS Daily Summary

Daily Weather History Graph

Daily Weather History Graph

Search for Another Location

Airport or City:

Trip Planner

Search our weather history database for the weather conditions in past years. The results will help you decide how hot, cold, wet, or windy it might be!

Date:

Astronomy

May. 20, 2013 Rise Set
Actual Time 6:31 AM CDT 8:36 PM CDT
Civil Twilight 6:03 AM CDT 9:04 PM CDT
Nautical Twilight 5:29 AM CDT 9:38 PM CDT
Astronomical Twilight 4:52 AM CDT 10:15 PM CDT
Moon 3:57 PM CDT (5/20) 3:14 AM CDT (5/20)
Length of Visible Light 15h 00m
Length of Day
14h 04m
Waxing Gibbous, 75% of the Moon is Illuminated
May 20
Waxing Gibbous
May 24
Full
May 31
Last Quarter
Jun 8
New
Jun 16
First Quarter

Hourly Weather History & Observations

Time (CDT) Temp. Heat Index Dew Point Humidity Pressure Visibility Wind Dir Wind Speed Gust Speed Precip Events Conditions
12:15 AM 72.1 °F - 32.2 °F 23% 29.67 in 10.0 mi SW 6.9 mph - N/A   Clear
12:55 AM 70.3 °F - 33.4 °F 26% 29.66 in 10.0 mi South 8.1 mph - N/A   Clear
1:15 AM 70.7 °F - 32.2 °F 24% 29.67 in 10.0 mi South 5.8 mph - N/A   Clear
1:35 AM 73.4 °F - 36.3 °F 26% 29.67 in 10.0 mi SSE 10.4 mph - N/A   Clear
1:55 AM 76.6 °F - 50.5 °F 40% 29.67 in 10.0 mi South 9.2 mph - N/A   Clear
2:15 AM 77.9 °F - 59.2 °F 52% 29.67 in 10.0 mi South 9.2 mph - N/A   Clear
2:35 AM 78.1 °F - 61.5 °F 57% 29.66 in 10.0 mi South 10.4 mph - N/A   Clear
3:15 AM 77.5 °F - 63.1 °F 61% 29.67 in 10.0 mi South 9.2 mph - N/A   Clear
3:35 AM 76.1 °F - 63.5 °F 65% 29.67 in 10.0 mi South 6.9 mph - N/A   Clear
3:55 AM 74.8 °F - 63.7 °F 68% 29.67 in 10.0 mi South 5.8 mph - N/A   Clear
4:35 AM 76.6 °F - 65.5 °F 68% 29.67 in 10.0 mi SW 6.9 mph - N/A   Clear
4:55 AM 74.3 °F - 64.0 °F 70% 29.67 in 7.0 mi WSW 5.8 mph - N/A   Clear
5:15 AM 69.4 °F - 60.1 °F 72% 29.67 in 10.0 mi West 5.8 mph - N/A   Clear
5:35 AM 67.1 °F - 57.2 °F 70% 29.68 in 10.0 mi West 5.8 mph - N/A   Clear
6:15 AM 66.7 °F - 56.8 °F 70% 29.69 in 10.0 mi WSW 5.8 mph - N/A   Clear
7:15 AM 68.5 °F - 59.5 °F 73% 29.70 in 7.0 mi SW 5.8 mph - N/A   Clear
7:35 AM 69.4 °F - 60.3 °F 73% 29.72 in 7.0 mi West 5.8 mph - N/A   Clear
7:55 AM 70.9 °F - 59.0 °F 66% 29.72 in 10.0 mi West 3.5 mph - N/A   Clear
8:15 AM 73.2 °F - 56.3 °F 55% 29.72 in 10.0 mi WSW 4.6 mph - N/A   Clear
8:35 AM 75.7 °F - 50.4 °F 41% 29.72 in 10.0 mi SW 5.8 mph - N/A   Clear
8:55 AM 78.4 °F - 46.2 °F 32% 29.72 in 10.0 mi SSW 6.9 mph - N/A   Clear
9:15 AM 80.1 °F - 49.3 °F 34% 29.72 in 10.0 mi SW 9.2 mph - N/A   Clear
9:35 AM 81.7 °F 80.9 °F 53.1 °F 37% 29.72 in 10.0 mi SW 8.1 mph - N/A   Clear
9:55 AM 83.3 °F - 49.5 °F 31% 29.73 in 10.0 mi WSW 10.4 mph - N/A   Clear
10:35 AM 85.8 °F - 41.4 °F 21% 29.72 in 10.0 mi SSW 10.4 mph - N/A   Clear
10:55 AM 87.3 °F - 38.1 °F 18% 29.72 in 10.0 mi West 10.4 mph - N/A   Clear
11:15 AM 88.0 °F - 32.5 °F 14% 29.73 in 10.0 mi West 9.2 mph - N/A   Unknown
11:35 AM 88.3 °F - 34.5 °F 15% 29.73 in 10.0 mi WNW 11.5 mph - N/A   Clear
11:55 AM 88.0 °F - 40.5 °F 19% 29.73 in 10.0 mi NW 8.1 mph - N/A   Clear
12:15 PM 88.0 °F - 42.1 °F 20% 29.74 in 10.0 mi WNW 9.2 mph 17.3 mph N/A   Clear
12:35 PM 88.9 °F - 39.4 °F 18% 29.73 in 10.0 mi West 6.9 mph - N/A   Clear
12:55 PM 89.8 °F - 44.1 °F 20% 29.73 in 10.0 mi West 8.1 mph - N/A   Clear
1:15 PM 90.1 °F - 44.8 °F 21% 29.72 in 10.0 mi Calm Calm - N/A   Clear
1:35 PM 91.0 °F - 43.5 °F 19% 29.71 in 10.0 mi NNW 5.8 mph - N/A   Clear
1:55 PM 91.8 °F - 42.3 °F 18% 29.71 in 10.0 mi SW 4.6 mph - N/A   Clear
2:15 PM 93.2 °F - 43.0 °F 18% 29.70 in 10.0 mi NW 3.5 mph - N/A   Clear
2:35 PM 93.9 °F - 41.9 °F 16% 29.69 in 10.0 mi West 4.6 mph - N/A   Clear
2:55 PM 94.6 °F - 41.2 °F 16% 29.68 in 10.0 mi West 6.9 mph 17.3 mph N/A   Clear
3:15 PM 95.9 °F - 40.1 °F 14% 29.67 in 10.0 mi SW 11.5 mph 18.4 mph N/A   Clear
3:35 PM 96.6 °F - 39.0 °F 14% 29.66 in 10.0 mi WNW 10.4 mph 16.1 mph N/A   Clear
3:55 PM 97.0 °F - 38.8 °F 13% 29.64 in 10.0 mi West 9.2 mph - N/A   Clear
4:15 PM 97.7 °F - 38.3 °F 13% 29.62 in 10.0 mi West 11.5 mph 21.9 mph N/A   Clear
4:35 PM 98.2 °F - 37.6 °F 12% 29.62 in 10.0 mi West 6.9 mph 23.0 mph N/A   Clear
4:55 PM 98.8 °F - 37.6 °F 12% 29.61 in 10.0 mi West 11.5 mph - N/A   Clear
5:15 PM 100.4 °F - 32.7 °F 9% 29.60 in 10.0 mi West 23.0 mph 27.6 mph N/A   Clear
5:35 PM 100.8 °F - 29.8 °F 8% 29.60 in 10.0 mi West 15.0 mph 20.7 mph N/A   Clear
5:55 PM 100.6 °F - 29.5 °F 8% 29.60 in 10.0 mi West 13.8 mph 20.7 mph N/A   Clear
6:15 PM 100.6 °F - 29.3 °F 8% 29.60 in 10.0 mi West 18.4 mph 25.3 mph N/A   Clear
6:35 PM 100.2 °F - 28.4 °F 8% 29.59 in 10.0 mi West 12.7 mph 21.9 mph N/A   Clear
6:55 PM 99.7 °F - 28.4 °F 8% 29.60 in 10.0 mi West 16.1 mph - N/A   Clear
7:15 PM 99.0 °F - 28.2 °F 8% 29.60 in 10.0 mi West 9.2 mph - N/A   Clear
7:35 PM 97.9 °F - 29.1 °F 9% 29.61 in 10.0 mi West 8.1 mph - N/A   Clear
7:55 PM 96.3 °F - 29.3 °F 9% 29.61 in 10.0 mi West 5.8 mph - N/A   Clear
8:15 PM 92.8 °F - 31.1 °F 11% 29.62 in 10.0 mi WNW 6.9 mph - N/A   Clear
8:35 PM 87.4 °F - 44.8 °F 23% 29.65 in 10.0 mi ENE 21.9 mph 28.8 mph N/A   Clear
8:55 PM 83.3 °F 82.2 °F 54.5 °F 37% 29.68 in 10.0 mi NE 15.0 mph - N/A   Clear
9:15 PM 81.3 °F 81.0 °F 55.8 °F 41% 29.69 in 10.0 mi NE 16.1 mph 21.9 mph N/A   Clear
9:35 PM 81.7 °F 81.3 °F 55.6 °F 41% 29.70 in 10.0 mi NE 15.0 mph 19.6 mph N/A   Clear
9:55 PM 81.5 °F 81.6 °F 58.3 °F 45% 29.71 in 10.0 mi NE 17.3 mph 23.0 mph N/A   Clear
10:15 PM 81.3 °F 81.8 °F 60.1 °F 48% 29.72 in 10.0 mi NE 17.3 mph 21.9 mph N/A   Clear
10:35 PM 80.6 °F 81.5 °F 61.0 °F 51% 29.74 in 10.0 mi ENE 12.7 mph 18.4 mph N/A   Clear
10:55 PM 79.7 °F - 61.2 °F 53% 29.74 in 10.0 mi ENE 12.7 mph - N/A   Clear
11:15 PM 79.2 °F - 61.0 °F 54% 29.75 in 10.0 mi ENE 11.5 mph - N/A   Clear
11:35 PM 78.3 °F - 61.0 °F 55% 29.76 in 10.0 mi NE 11.5 mph 18.4 mph N/A   Clear
11:55 PM 77.5 °F - 61.2 °F 57% 29.76 in 10.0 mi NE 11.5 mph - N/A   Clear